• în România
  • Lista ţărilor
  • Pe 7 zile
  • Temperatura apei
  • Hartă satelitară
  • Meteo pe hartă
  • Widget-uri
  • user-avatar
    Intrare

    Meteo pe oră la Linz

    Astăzi, 17 August, Vineri

    Timp Temperatura Precipitaţii Vânt Presiune Umiditate
    00:00 +19°C° 0 mm 1 m/s 734 mmHg 79%
    01:00 +19°C° 0 mm 1 m/s 734 mmHg 77%
    02:00 +18°C° 0 mm 1 m/s 734 mmHg 78%
    03:00 +18°C° 0 mm 1 m/s 734 mmHg 79%
    04:00 +16°C° 0 mm 1 m/s 734 mmHg 80%
    05:00 +19°C° 0 mm 1 m/s 734 mmHg 78%
    06:00 +20°C° 0 mm 1 m/s 734 mmHg 75%
    07:00 +21°C° 0 mm 1 m/s 734 mmHg 73%
    08:00 +23°C° 0 mm 1 m/s 734 mmHg 66%
    09:00 +25°C° 0 mm 1 m/s 734 mmHg 59%
    10:00 +28°C° 0 mm 1 m/s 734 mmHg 52%
    11:00 +29°C° 0 mm 1 m/s 734 mmHg 50%
    12:00 +30°C° 0 mm 1 m/s 734 mmHg 47%
    13:00 +30°C° 0 mm 1 m/s 734 mmHg 45%
    14:00 +30°C° 0 mm 1 m/s 734 mmHg 46%
    15:00 +30°C° 0 mm 1 m/s 733 mmHg 47%
    16:00 +30°C° 0 mm 1 m/s 733 mmHg 48%
    17:00 +28°C° 0 mm 1 m/s 733 mmHg 55%
    18:00 +23°C° 0 mm 0 m/s 733 mmHg 63%
    19:00 +21°C° 0 mm 0 m/s 733 mmHg 71%
    20:00 +20°C° 0 mm 0 m/s 734 mmHg 73%
    21:00 +22°C° 0 mm 1 m/s 734 mmHg 75%
    22:00 +21°C° 0 mm 1 m/s 735 mmHg 77%
    23:00 +20°C° 0 mm 1 m/s 735 mmHg 78%

    Mâine, 18 August, Sâmbătă

    Timp Temperatura Precipitaţii Vânt Presiune Umiditate
    00:00 +20°C° 0 mm 1 m/s 735 mmHg 80%
    01:00 +19°C° 0 mm 1 m/s 735 mmHg 81%
    02:00 +19°C° 0 mm 1 m/s 735 mmHg 83%
    03:00 +19°C° 0 mm 1 m/s 735 mmHg 84%
    04:00 +18°C° 0 mm 1 m/s 736 mmHg 86%
    05:00 +19°C° 0 mm 1 m/s 736 mmHg 84%
    06:00 +18°C° 0 mm 0 m/s 736 mmHg 82%
    07:00 +19°C° 0 mm 0 m/s 736 mmHg 80%
    08:00 +23°C° 0 mm 1 m/s 736 mmHg 74%
    09:00 +25°C° 0 mm 1 m/s 737 mmHg 68%
    10:00 +27°C° 0 mm 1 m/s 737 mmHg 63%
    11:00 +28°C° 0,2 mm 1 m/s 737 mmHg 60%
    12:00 +29°C° 0,2 mm 1 m/s 737 mmHg 58%
    13:00 +30°C° 0,2 mm 1 m/s 736 mmHg 56%
    14:00 +29°C° 0,2 mm 1 m/s 736 mmHg 55%
    15:00 +29°C° 0,2 mm 1 m/s 736 mmHg 55%
    16:00 +29°C° 0,2 mm 1 m/s 736 mmHg 54%
    17:00 +27°C° 0,1 mm 1 m/s 736 mmHg 60%
    18:00 +24°C° 0,1 mm 0 m/s 736 mmHg 67%
    19:00 +22°C° 0,1 mm 0 m/s 736 mmHg 73%
    20:00 +23°C° 0 mm 1 m/s 737 mmHg 75%
    21:00 +22°C° 0 mm 1 m/s 737 mmHg 76%
    22:00 +21°C° 0 mm 1 m/s 737 mmHg 78%
    23:00 +21°C° 0 mm 1 m/s 737 mmHg 80%

    Poimâine, 19 August, Duminică

    Timp Temperatura Precipitaţii Vânt Presiune Umiditate
    00:00 +20°C° 0 mm 1 m/s 737 mmHg 81%
    01:00 +20°C° 0 mm 1 m/s 737 mmHg 83%
    02:00 +20°C° 0 mm 1 m/s 737 mmHg 85%
    03:00 +19°C° 0 mm 1 m/s 737 mmHg 86%
    04:00 +19°C° 0 mm 1 m/s 737 mmHg 88%
    05:00 +18°C° 0 mm 0 m/s 737 mmHg 86%
    06:00 +19°C° 0 mm 0 m/s 737 mmHg 83%
    07:00 +20°C° 0 mm 0 m/s 738 mmHg 81%
    08:00 +22°C° 0 mm 0 m/s 738 mmHg 74%
    09:00 +26°C° 0 mm 1 m/s 738 mmHg 67%
    10:00 +28°C° 0 mm 1 m/s 738 mmHg 61%
    11:00 +28°C° 0,2 mm 1 m/s 737 mmHg 58%
    12:00 +29°C° 0,2 mm 1 m/s 737 mmHg 55%
    13:00 +30°C° 0,2 mm 1 m/s 737 mmHg 52%
    14:00 +30°C° 0,1 mm 1 m/s 737 mmHg 52%
    15:00 +30°C° 0,1 mm 1 m/s 736 mmHg 52%
    16:00 +30°C° 0,1 mm 1 m/s 736 mmHg 52%
    17:00 +28°C° 0,1 mm 1 m/s 736 mmHg 59%
    18:00 +26°C° 0,1 mm 1 m/s 736 mmHg 66%
    19:00 +24°C° 0,1 mm 1 m/s 736 mmHg 73%
    20:00 +23°C° 0 mm 1 m/s 736 mmHg 75%
    21:00 +22°C° 0 mm 1 m/s 736 mmHg 77%
    22:00 +21°C° 0 mm 1 m/s 737 mmHg 79%
    23:00 +21°C° 0 mm 1 m/s 736 mmHg 81%

    20 August, Luni

    Timp Temperatura Precipitaţii Vânt Presiune Umiditate
    00:00 +20°C° 0 mm 1 m/s 736 mmHg 83%
    01:00 +20°C° 0 mm 1 m/s 736 mmHg 84%
    02:00 +20°C° 0 mm 1 m/s 736 mmHg 85%
    03:00 +19°C° 0 mm 1 m/s 736 mmHg 87%
    04:00 +19°C° 0 mm 1 m/s 736 mmHg 88%
    05:00 +18°C° 0 mm 0 m/s 736 mmHg 85%
    06:00 +19°C° 0 mm 0 m/s 736 mmHg 83%
    07:00 +20°C° 0 mm 0 m/s 736 mmHg 80%
    08:00 +22°C° 0,1 mm 0 m/s 736 mmHg 74%
    09:00 +26°C° 0,1 mm 1 m/s 737 mmHg 67%
    10:00 +28°C° 0,1 mm 1 m/s 737 mmHg 60%
    11:00 +29°C° 0,2 mm 1 m/s 736 mmHg 58%
    12:00 +29°C° 0,2 mm 1 m/s 736 mmHg 55%
    13:00 +30°C° 0,2 mm 1 m/s 736 mmHg 53%
    14:00 +30°C° 0,2 mm 1 m/s 736 mmHg 53%
    15:00 +30°C° 0,2 mm 1 m/s 735 mmHg 53%
    16:00 +30°C° 0,2 mm 1 m/s 735 mmHg 53%
    17:00 +28°C° 0,2 mm 1 m/s 735 mmHg 60%
    18:00 +24°C° 0,2 mm 0 m/s 735 mmHg 67%
    19:00 +22°C° 0,2 mm 0 m/s 735 mmHg 73%
    20:00 +21°C° 0 mm 0 m/s 735 mmHg 75%
    21:00 +22°C° 0 mm 1 m/s 736 mmHg 77%
    22:00 +22°C° 0 mm 1 m/s 736 mmHg 80%
    23:00 +21°C° 0 mm 1 m/s 736 mmHg 81%

    21 August, Marţi

    Timp Temperatura Precipitaţii Vânt Presiune Umiditate
    00:00 +21°C° 0 mm 1 m/s 736 mmHg 83%
    01:00 +20°C° 0 mm 1 m/s 736 mmHg 85%
    02:00 +20°C° 0 mm 1 m/s 736 mmHg 87%
    03:00 +20°C° 0 mm 1 m/s 736 mmHg 88%
    04:00 +19°C° 0 mm 1 m/s 736 mmHg 89%
    05:00 +20°C° 0 mm 1 m/s 736 mmHg 87%
    06:00 +21°C° 0 mm 1 m/s 737 mmHg 84%
    07:00 +22°C° 0 mm 1 m/s 737 mmHg 82%
    08:00 +24°C° 0 mm 1 m/s 737 mmHg 76%
    09:00 +26°C° 0 mm 1 m/s 737 mmHg 70%
    10:00 +28°C° 0 mm 1 m/s 737 mmHg 63%
    11:00 +29°C° 0,2 mm 1 m/s 737 mmHg 59%
    12:00 +29°C° 0,2 mm 1 m/s 736 mmHg 55%
    13:00 +30°C° 0,2 mm 1 m/s 736 mmHg 51%
    14:00 +30°C° 0,2 mm 1 m/s 736 mmHg 52%
    15:00 +30°C° 0,2 mm 1 m/s 736 mmHg 53%
    16:00 +30°C° 0,2 mm 1 m/s 736 mmHg 54%
    17:00 +28°C° 0,1 mm 1 m/s 736 mmHg 60%
    18:00 +24°C° 0,1 mm 0 m/s 736 mmHg 66%
    19:00 +22°C° 0,1 mm 0 m/s 736 mmHg 72%
    20:00 +23°C° 0 mm 1 m/s 736 mmHg 74%
    21:00 +23°C° 0 mm 1 m/s 736 mmHg 76%
    22:00 +22°C° 0 mm 1 m/s 736 mmHg 78%
    23:00 +21°C° 0 mm 1 m/s 736 mmHg 80%

    22 August, Miercuri

    Timp Temperatura Precipitaţii Vânt Presiune Umiditate
    00:00 +21°C° 0 mm 1 m/s 736 mmHg 81%
    01:00 +21°C° 0 mm 1 m/s 736 mmHg 82%
    02:00 +20°C° 0 mm 1 m/s 736 mmHg 83%
    03:00 +20°C° 0 mm 1 m/s 736 mmHg 84%
    04:00 +20°C° 0 mm 1 m/s 736 mmHg 85%
    05:00 +21°C° 0 mm 1 m/s 736 mmHg 83%
    06:00 +20°C° 0 mm 0 m/s 736 mmHg 81%
    07:00 +21°C° 0 mm 0 m/s 736 mmHg 79%
    08:00 +23°C° 0 mm 0 m/s 736 mmHg 72%
    09:00 +25°C° 0 mm 0 m/s 736 mmHg 66%
    10:00 +29°C° 0 mm 1 m/s 736 mmHg 59%
    11:00 +29°C° 0,4 mm 1 m/s 736 mmHg 58%
    12:00 +30°C° 0,4 mm 1 m/s 736 mmHg 57%
    13:00 +31°C° 0,4 mm 1 m/s 735 mmHg 56%
    14:00 +30°C° 0,5 mm 1 m/s 735 mmHg 57%
    15:00 +30°C° 0,5 mm 1 m/s 735 mmHg 58%
    16:00 +28°C° 0,5 mm 0 m/s 735 mmHg 58%
    17:00 +28°C° 0,3 mm 1 m/s 735 mmHg 64%
    18:00 +26°C° 0,3 mm 1 m/s 735 mmHg 71%
    19:00 +24°C° 0,3 mm 1 m/s 735 mmHg 77%
    20:00 +23°C° 0,6 mm 1 m/s 735 mmHg 80%
    21:00 +22°C° 0,6 mm 1 m/s 736 mmHg 84%
    22:00 +21°C° 0,6 mm 1 m/s 736 mmHg 87%
    23:00 +21°C° 0,6 mm 1 m/s 736 mmHg 89%
    Arată mai mult